This is the latest recevied weather packets stored in our database for station/object K3MV-13. If no packets are shown the sender has not sent any weather packets the latest 10 day(s).
| Time | Temp. | Humidity | Pressure | Rain* | Wind** | Luminosity | Snow |
|---|---|---|---|---|---|---|---|
| 1777739816 | 7.78° C | 54% | 1014.2 hPa | 0 mm | - | 228 W/m² | - |
| 1777739513 | 7.22° C | 57% | 1014.2 hPa | 0 mm | - | 1051 W/m² | - |
| 1777739210 | 6.67° C | 61% | 1014.2 hPa | 0 mm | - | 533 W/m² | - |
| 1777738907 | 6.67° C | 60% | 1014.2 hPa | 0 mm | - | 266 W/m² | - |
| 1777738604 | 6.67° C | 60% | 1014.3 hPa | 0 mm | - | 189 W/m² | - |
| 1777738301 | 6.67° C | 59% | 1014.2 hPa | 0 mm | - | 139 W/m² | - |
| 1777737999 | 7.22° C | 55% | 1014.4 hPa | 0 mm | - | 119 W/m² | - |
| 1777737697 | 7.78° C | 55% | 1014.3 hPa | 0 mm | - | 228 W/m² | - |
| 1777737395 | 6.11° C | 57% | 1014.7 hPa | 0 mm | - | 855 W/m² | - |
| 1777737092 | 6.11° C | 56% | 1014.6 hPa | 0 mm | - | 156 W/m² | - |
| 1777736788 | 6.67° C | 55% | 1014.6 hPa | 0 mm | - | 127 W/m² | - |
| 1777736160 | 7.22° C | 62% | 1014.3 hPa | 0 mm | - | 940 W/m² | - |
| 1777735857 | 6.11° C | 61% | 1014.2 hPa | 0 mm | - | 911 W/m² | - |
| 1777735555 | 5.56° C | 61% | 1014.4 hPa | 0 mm | - | 243 W/m² | - |
| 1777735251 | 6.11° C | 60% | 1014.4 hPa | 0 mm | - | 157 W/m² | - |
| 1777734949 | 6.67° C | 63% | 1014.3 hPa | 0 mm | - | 131 W/m² | - |
| 1777734646 | 7.78° C | 61% | 1014.3 hPa | 0 mm | - | 98 W/m² | - |
| 1777734343 | 7.22° C | 62% | 1014.4 hPa | 0 mm | - | 612 W/m² | - |
| 1777734039 | 6.67° C | 64% | 1014.3 hPa | 0 mm | - | 784 W/m² | - |
| 1777733736 | 6.67° C | 67% | 1014.2 hPa | 0 mm | - | 318 W/m² | - |
| 1777733432 | 6.67° C | 64% | 1014.2 hPa | 0 mm | - | 202 W/m² | - |
| 1777733129 | 6.67° C | 67% | 1014.2 hPa | 0 mm | - | 340 W/m² | - |
| 1777732826 | 6.67° C | 64% | 1014.1 hPa | 0 mm | - | 195 W/m² | - |
| 1777732522 | 6.11° C | 67% | 1014.4 hPa | 0 mm | - | 738 W/m² | - |
| 1777732220 | 6.67° C | 66% | 1014.3 hPa | 0 mm | - | 164 W/m² | - |
* Rain latest hour (hover to see other rain measurements)
** Current wind speed in m/s (hover to see current wind gust speed)